| time (UTC) | temp C | wind direction | speed KPH | gust KPH | rain 1hr cm | rain 24hr cm | rain mn cm | humidity % | barometer mb |
| 20260504234533 | 22 | 0 | 0.0 | 0.0 | 0.00 | 0.00 | 0.00 | 46 | 1014.2 |
| 20260504233028 | 23 | 0 | 0.0 | 1.6 | 0.00 | 0.00 | 0.00 | 43 | 1014.1 |
| 20260504231531 | 23 | 182 | 0.0 | 3.2 | 0.00 | 0.00 | 0.00 | 41 | 1014.2 |
| 20260504230027 | 24 | 213 | 1.6 | 4.8 | 0.00 | 0.00 | 0.00 | 37 | 1014.1 |
| 20260504224528 | 25 | 228 | 3.2 | 8.0 | 0.00 | 0.00 | 0.00 | 35 | 1014.2 |
| 20260504223042 | 25 | 201 | 1.6 | 4.8 | 0.00 | 0.00 | 0.00 | 35 | 1014.1 |
| 20260504221531 | 24 | 0 | 1.6 | 4.8 | 0.00 | 0.00 | 0.00 | 37 | 1014.1 |
| 20260504220028 | 25 | 200 | 1.6 | 4.8 | 0.00 | 0.00 | 0.00 | 35 | 1014.0 |
| 20260504214531 | 25 | 238 | 3.2 | 11.3 | 0.00 | 0.00 | 0.00 | 33 | 1014.0 |
| 20260504213045 | 25 | 153 | 1.6 | 4.8 | 0.00 | 0.00 | 0.00 | 40 | 1014.0 |
| 20260504211534 | 25 | 0 | 0.0 | 4.8 | 0.00 | 0.00 | 0.00 | 36 | 1013.9 |
| 20260504210030 | 26 | 186 | 3.2 | 8.0 | 0.00 | 0.00 | 0.00 | 33 | 1014.1 |
| 20260504204541 | 25 | 96 | 0.0 | 6.4 | 0.00 | 0.00 | 0.00 | 37 | 1014.2 |
| 20260504203029 | 25 | 171 | 1.6 | 9.7 | 0.00 | 0.00 | 0.00 | 33 | 1014.4 |
| 20260504201529 | 26 | 189 | 1.6 | 8.0 | 0.00 | 0.00 | 0.00 | 34 | 1014.5 |
| 20260504200028 | 26 | 232 | 1.6 | 6.4 | 0.00 | 0.00 | 0.00 | 33 | 1014.7 |
| 20260504194530 | 26 | 215 | 1.6 | 8.0 | 0.00 | 0.00 | 0.00 | 35 | 1014.9 |
| 20260504193030 | 25 | 140 | 1.6 | 6.4 | 0.00 | 0.00 | 0.00 | 34 | 1015.0 |
| 20260504191529 | 25 | 151 | 1.6 | 9.7 | 0.00 | 0.00 | 0.00 | 34 | 1015.2 |
| 20260504190028 | 25 | 84 | 1.6 | 9.7 | 0.00 | 0.00 | 0.00 | 33 | 1015.5 |
| 20260504184531 | 25 | 218 | 1.6 | 6.4 | 0.00 | 0.00 | 0.00 | 36 | 1015.7 |
| 20260504183027 | 23 | 0 | 1.6 | 6.4 | 0.00 | 0.00 | 0.00 | 35 | 1015.9 |
| 20260504181531 | 23 | 0 | 3.2 | 6.4 | 0.00 | 0.00 | 0.00 | 34 | 1016.1 |
| 20260504180028 | 23 | 213 | 0.0 | 3.2 | 0.00 | 0.00 | 0.00 | 37 | 1016.2 |
| 20260504174528 | 23 | 190 | 1.6 | 9.7 | 0.00 | 0.00 | 0.00 | 37 | 1016.4 |
| 20260504173030 | 22 | 0 | 0.0 | 6.4 | 0.00 | 0.00 | 0.00 | 39 | 1016.5 |
| 20260504171530 | 22 | 31 | 1.6 | 9.7 | 0.00 | 0.00 | 0.00 | 39 | 1016.7 |
| 20260504081528 | 7 | 0 | 0.0 | 0.0 | 0.00 | 0.00 | 0.00 | 92 | 1017.5 |
| 20260504044541 | 10 | 0 | 0.0 | 0.0 | 0.00 | 0.00 | 0.00 | 86 | 1018.4 |
| 20260504043030 | 10 | 0 | 0.0 | 0.0 | 0.00 | 0.00 | 0.00 | 86 | 1018.4 |
| 20260504041530 | 10 | 0 | 0.0 | 0.0 | 0.00 | 0.00 | 0.00 | 85 | 1018.3 |
| 20260504040032 | 10 | 0 | 0.0 | 0.0 | 0.00 | 0.00 | 0.00 | 84 | 1018.3 |
| 20260504034530 | 10 | 0 | 0.0 | 0.0 | 0.00 | 0.00 | 0.00 | 84 | 1018.4 |
| 20260504033030 | 11 | 0 | 0.0 | 1.6 | 0.00 | 0.00 | 0.00 | 83 | 1018.4 |
| 20260504031531 | 11 | 0 | 0.0 | 1.6 | 0.00 | 0.00 | 0.00 | 81 | 1018.2 |
| 20260504030028 | 11 | 0 | 0.0 | 0.0 | 0.00 | 0.00 | 0.00 | 79 | 1018.2 |
| 20260504024530 | 12 | 0 | 0.0 | 0.0 | 0.00 | 0.00 | 0.00 | 79 | 1018.1 |
| 20260504023030 | 12 | 0 | 0.0 | 1.6 | 0.00 | 0.00 | 0.00 | 76 | 1017.8 |
| 20260504021529 | 12 | 0 | 0.0 | 0.0 | 0.00 | 0.00 | 0.00 | 75 | 1017.6 |
| 20260504020028 | 12 | 0 | 0.0 | 0.0 | 0.00 | 0.00 | 0.00 | 74 | 1017.4 |
| 20260504014528 | 13 | 0 | 0.0 | 4.8 | 0.00 | 0.00 | 0.00 | 71 | 1017.2 |
| 20260504013036 | 14 | 0 | 0.0 | 0.0 | 0.00 | 0.00 | 0.00 | 69 | 1017.1 |
| 20260504011528 | 15 | 0 | 0.0 | 0.0 | 0.00 | 0.00 | 0.00 | 66 | 1016.9 |
| 20260504010029 | 16 | 0 | 0.0 | 0.0 | 0.00 | 0.00 | 0.00 | 62 | 1016.8 |
| 20260504004528 | 16 | 0 | 0.0 | 0.0 | 0.00 | 0.00 | 0.00 | 54 | 1016.6 |
| 20260504003032 | 17 | 0 | 0.0 | 0.0 | 0.00 | 0.00 | 0.00 | 52 | 1016.4 |
| 20260504001530 | 18 | 0 | 0.0 | 0.0 | 0.00 | 0.00 | 0.00 | 46 | 1016.4 |
| 20260504000027 | 19 | 0 | 0.0 | 1.6 | 0.00 | 0.00 | 0.00 | 46 | 1016.4 |